Home > Time Zones > World Clock > Weather > India > Buxar > Past weeks

Flag for India Weather past 2 weeks in Buxar, Bihar, India

Now
77 °F

Haze.


Feels Like: 79 °F
Forecast: 80 / 105 °F
Wind: No wind

Location: Lucknow / Amausi

Current Time: May 4, 2015 at 2:42:28 AM

Latest Report: May 4, 2015 at 1:00 AM


Visibility: 2 mi

Pressure: 29.74 "Hg

Humidity: 61%

Dew point: 63 °F

Location of BuxarLocation

Historic Weather in Buxar — Graph

°F

Buxar temperature yesterday

Maximum temperature yesterday: 104 °F (at 2:30 PM)
Minimum temperature yesterday: 73 °F (at 5:00 AM)
Average temperature yesterday: 91 °F

Past Weeks' High & Low Weather Summary

 TemperatureHumidityPressure
High108 °F (Apr 21, 2:30 PM)100% (Apr 28, 8:00 AM)29.92 "Hg (Apr 28, 8:00 AM)
Low68 °F (Apr 28, 8:00 AM)13% (Apr 22, 2:00 PM)29.56 "Hg (Apr 22, 3:00 AM)
Average88 °F50%29.71 "Hg
* Reported Apr 19 1:00 AM — May 4 1:00 AM, Buxar, Weather by CustomWeather, © 2015

Note: Actual official high and low records may vary slightly from our data, if they occured in-between our weather recording intervals... More about our weather records

Advertising

Buxar weather history for previous 24 hours

 ConditionsComfort  
Time TempWeatherWind HumidityBarometerVisibility
1:00 AM
Mon, May 4
77 °FHaze.No wind61%29.74 "Hg2 mi
9:00 PM
Sun, May 3
90 °FHaze.No wind33%29.71 "Hg2 mi
8:30 PM90 °FHaze.No wind33%29.71 "Hg2 mi
8:00 PM91 °FHaze.No wind34%29.71 "Hg2 mi
7:30 PM93 °FHaze.No wind30%29.68 "Hg3 mi
7:00 PM97 °FHaze.2 mph25%29.68 "Hg3 mi
6:30 PM97 °FDuststorm.2 mph25%29.68 "Hg3 mi
6:00 PM99 °FDuststorm.3 mph24%29.68 "Hg3 mi
5:30 PM100 °FDuststorm.3 mph22%29.65 "Hg3 mi
5:00 PM102 °FDuststorm.2 mph21%29.65 "Hg3 mi
4:40 PM102 °FDuststorm.2 mph18%29.68 "Hg3 mi
4:00 PM104 °FDuststorm.2 mph17%29.68 "Hg3 mi
3:30 PM104 °FDuststorm.5 mph17%29.71 "Hg3 mi
3:00 PM104 °FDuststorm.2 mph17%29.71 "Hg3 mi
2:30 PM104 °FDuststorm.2 mph17%29.74 "Hg3 mi
2:00 PM102 °FDuststorm.3 mph21%29.74 "Hg3 mi
1:30 PM102 °FDuststorm.3 mph23%29.74 "Hg3 mi
1:00 PM102 °FDuststorm.3 mph24%29.77 "Hg3 mi
12:30 PM100 °FDuststorm.3 mph25%29.77 "Hg3 mi
11:30 AM97 °FDuststorm.2 mph34%29.80 "Hg3 mi
11:00 AM97 °FDuststorm.2 mph32%29.80 "Hg2 mi
10:30 AM95 °FDuststorm.2 mph34%29.80 "Hg2 mi
10:00 AM93 °FDuststorm.3 mph36%29.80 "Hg2 mi
9:30 AM91 °FDuststorm.3 mph38%29.80 "Hg2 mi
9:00 AM88 °FHaze.3 mph46%29.80 "Hg2 mi
8:30 AM84 °FHaze.2 mph51%29.80 "Hg2 mi
8:00 AM82 °FHaze.2 mph55%29.77 "Hg2 mi
7:30 AM79 °FFog.No wind65%29.77 "Hg2 mi
7:00 AM79 °FHaze.No wind65%29.77 "Hg2 mi
6:30 AM75 °FFog.No wind65%29.74 "Hg2 mi
6:00 AM73 °FFog.No wind69%29.74 "Hg2 mi
5:30 AM73 °FHaze.No wind69%29.71 "Hg2 mi
5:00 AM73 °FHaze.No wind69%29.71 "Hg2 mi
4:00 AM75 °FHaze.No wind65%29.71 "Hg2 mi
3:00 AM77 °FHaze.No wind57%29.71 "Hg2 mi
2:00 AM79 °FHaze.No wind51%29.71 "Hg2 mi
Weather by CustomWeather, © 2015

See weather overviewHow to use our weather pages